Retour au catalogue

DELTA 1 DEB

ActifSSO
NORAD 10865·DEBRIS·🇺🇸 United States

Lancé Jul 29, 1976 depuis Vandenberg Space Force Base

Loading…

Prochains Passages (prochaines 24 heures)

TLE

FraisSource: Space-Track

Époque: Sep 14, 2026, 08:08 UTC

1 10865U 76077CT  26257.33919600 -.00000031  00000-0  12209-3 0  9992
2 10865 102.4030 201.7845 0111873 355.3266 159.2059 12.20361681233751

Suivez DELTA 1 DEB en temps réel avec AllMySat

Download on the App Store